Regional Weather Roundup
Issued by NWS Albany, NY

Home | Current Version | Previous Version | Text Only | Print | Product List | Glossary On
Versions: 1 2 3 4 5 6 7 8 9 10 11 12 13 14 15 16 17 18 19 20 21 22 23 24 25 26 27
000
ASUS41 KALY 162110
RWRALY

NEW YORK STATE HOURLY WEATHER ROUNDUP
NATIONAL WEATHER SERVICE ALBANY NY
400 PM EST TUE JAN 16 2018

NOTE: "FAIR" INDICATES FEW OR NO CLOUDS BELOW 12,000 FEET WITH NO
SIGNIFICANT WEATHER AND/OR NO OBSTRUCTIONS TO VISIBILITY.

NYZ032-033-038>043-046>054-057>066-NYZ062>081-082-084-162200-
EAST


CITY           SKY/WX    TMP DP  RH WIND       PRES   REMARKS
ALBANY         LGT SNOW  29  23  78 CALM      30.42R
GLENS FALLS    CLOUDY    24  22  91 CALM      30.41S FOG
POUGHKEEPSIE   LGT SNOW  28  25  88 CALM      30.42S VSB 1
NEWBURGH       LGT SNOW  28  28 100 CALM      30.41S FOG
MONTGOMERY     LGT SNOW  28  25  88 CALM      30.39S VSB 1
WHITE PLAINS   MOCLDY    32  23  69 E3        30.39F
ISLIP          CLOUDY    38  31  76 SE7       30.42S WCI  33
NEW YORK CITY  CLOUDY    32  26  78 NE9       30.42S WCI  24
CENTRAL PARK   CLOUDY    35  27  72 VRB3      30.43F
$$

NYZ005>009-017-018-044>046-055-056-162200-
CENTRAL


CITY           SKY/WX    TMP DP  RH WIND       PRES   REMARKS
FULTON         CLOUDY    29  16  58 NW5       30.37R WCI  24
SYRACUSE       LGT SNOW  26  24  92 W5        30.38S FOG     WCI  20
ROME           LGT SNOW  25  23  92 CALM      30.40S VSB 1
ELMIRA         LGT SNOW  28  25  88 E3        30.33S VSB 3/4
BINGHAMTON     LGT SNOW  25  22  88 CALM      30.29S VSB 1
MONTICELLO     LGT SNOW  29  26  89 SE5       30.33F FOG     WCI  24
$$

NYZ026>034-041>043-087-162200-
NORTH


CITY           SKY/WX    TMP DP  RH WIND       PRES   REMARKS
WATERTOWN      SNOW      25  23  92 W7        30.38R VSB 1/2 WCI  17
FORT DRUM      NOT AVBL
OGDENSBURG     LGT SNOW  15  11  84 CALM      30.40R
MASSENA        LGT SNOW  12   9  87 E3        30.43R FOG
SARANAC LAKE   LGT SNOW  22  21  96 CALM      30.27R FOG
PLATTSBURGH    CLOUDY    19  14  81 N7        30.40R WCI  10
$$

NYZ001>004-010>016-019>021-085-162200-
WEST


CITY           SKY/WX    TMP DP  RH WIND       PRES   REMARKS
NIAGARA FALLS  LGT SNOW  25  18  74 W6        30.34S WCI  18
BUFFALO        FLURRIES  24  19  81 W8        30.34R WCI  15
DUNKIRK        LGT SNOW  18  14  84 SW8       30.37R FOG     WCI   8
JAMESTOWN      LGT SNOW  16  13  88 N12       30.26R FOG     WCI   3
WELLSVILLE     LGT SNOW  25  22  88 SE3       30.24F VSB 3/4
ROCHESTER      MOCLDY    29  15  56 W6        30.36R WCI  23
PENN YAN       LGT SNOW  26  20  77 VRB3      30.33S VSB 3/4
$$

             KEY
       WCI = WIND CHILL INDEX
       VSB = VISIBILITY
       HX  = HEAT INDEX
$$




USA.gov is the U.S. government's official web portal to all federal, state and local government web resources and services.